GW1851 Weather Reports


Display with metric or nautical units.
time (UTC)temp
F
wind
direction
speed
MPH
gust
MPH
rain 1hr
in
rain 24hr
in
rain mn
in
humidity
%
barometer
mb
20260903205356 96 216 0.0 0.0 0.00 0.00 0.00 57 1013.2
20260903204851 99 214 1.0 2.0 0.00 0.00 0.00 53 1013.1
20260903204347 99 219 1.0 2.0 0.00 0.00 0.00 53 1013.2
20260903203843 98 234 2.0 2.0 0.00 0.00 0.00 55 1013.5
20260903203339 98 214 0.0 1.0 0.00 0.00 0.00 55 1013.3
20260903202837 98 203 1.0 1.0 0.00 0.00 0.00 55 1013.3
20260903202334 99 242 1.0 3.0 0.00 0.00 0.00 52 1013.4
20260903201834 99 222 1.0 1.0 0.00 0.00 0.00 53 1013.2
20260903201329 98 232 3.0 3.0 0.00 0.00 0.00 53 1013.2
20260903200827 99 216 1.0 1.0 0.00 0.00 0.00 54 1013.1
20260903200323 100 245 1.0 2.0 0.00 0.00 0.00 53 1013.3
20260903195818 99 219 0.0 0.0 0.00 0.00 0.00 55 1013.1
20260903195314 98 275 0.0 1.0 0.00 0.00 0.00 54 1013.4
20260903194809 99 211 0.0 0.0 0.00 0.00 0.00 54 1013.3
20260903194305 99 219 1.0 1.0 0.00 0.00 0.00 53 1013.2
20260903193800 98 227 2.0 2.0 0.00 0.00 0.00 56 1013.4
20260903193256 98 221 1.0 1.0 0.00 0.00 0.00 56 1013.4
20260903192751 98 226 3.0 3.0 0.00 0.00 0.00 55 1013.3
20260903192247 98 243 1.0 1.0 0.00 0.00 0.00 55 1013.5
20260903191743 97 232 2.0 2.0 0.00 0.00 0.00 57 1013.6
20260903191239 98 230 1.0 1.0 0.00 0.00 0.00 58 1013.6
20260903190733 98 215 0.0 0.0 0.00 0.00 0.00 57 1013.7
20260903190232 97 234 3.0 3.0 0.00 0.00 0.00 55 1013.8
20260903185728 98 215 1.0 2.0 0.00 0.00 0.00 57 1013.8
20260903185222 98 220 0.0 0.0 0.00 0.00 0.00 55 1013.8
20260903184719 98 221 1.0 1.0 0.00 0.00 0.00 57 1013.8
20260903184215 97 227 1.0 1.0 0.00 0.00 0.00 60 1013.9
20260903183714 97 216 1.0 1.0 0.00 0.00 0.00 56 1014.0
20260903183209 98 219 2.0 2.0 0.00 0.00 0.00 57 1013.9
20260903182708 97 220 1.0 1.0 0.00 0.00 0.00 57 1014.2
20260903182204 97 232 1.0 1.0 0.00 0.00 0.00 57 1014.0
20260903181702 97 220 0.0 1.0 0.00 0.00 0.00 56 1013.8
20260903181156 96 229 0.0 0.0 0.00 0.00 0.00 59 1014.1
20260903180652 96 219 1.0 1.0 0.00 0.00 0.00 61 1014.3
20260903180146 96 227 1.0 1.0 0.00 0.00 0.00 59 1014.3
20260903175644 96 223 1.0 1.0 0.00 0.00 0.00 60 1014.3
20260903175139 95 260 1.0 2.0 0.00 0.00 0.00 62 1014.5
20260903174633 96 230 1.0 1.0 0.00 0.00 0.00 65 1014.4
20260903174128 96 224 1.0 1.0 0.00 0.00 0.00 61 1014.4
20260903173623 95 231 2.0 2.0 0.00 0.00 0.00 62 1014.4
20260903173120 95 217 0.0 0.0 0.00 0.00 0.00 60 1014.4
20260903172619 95 232 2.0 2.0 0.00 0.00 0.00 59 1014.4
20260903172115 96 215 1.0 1.0 0.00 0.00 0.00 61 1014.2
20260903171615 95 215 1.0 2.0 0.00 0.00 0.00 60 1014.6
20260903171111 94 216 0.0 1.0 0.00 0.00 0.00 62 1014.7
20260903170609 93 217 1.0 1.0 0.00 0.00 0.00 67 1014.7
20260903170105 94 274 2.0 2.0 0.00 0.00 0.00 63 1014.8
20260903165602 93 192 2.0 2.0 0.00 0.00 0.00 62 1014.7
20260903165058 93 219 3.0 3.0 0.00 0.00 0.00 62 1015.0
20260903164552 93 221 2.0 2.0 0.00 0.00 0.00 63 1015.0
20260903164048 93 231 2.0 2.0 0.00 0.00 0.00 65 1015.0
20260903163543 92 209 2.0 2.0 0.00 0.00 0.00 63 1015.0
20260903163039 92 232 1.0 1.0 0.00 0.00 0.00 64 1015.0
20260903162535 92 221 1.0 1.0 0.00 0.00 0.00 65 1015.0
20260903162031 92 246 2.0 3.0 0.00 0.00 0.00 64 1015.1
20260903161526 92 249 1.0 3.0 0.00 0.00 0.00 67 1015.0
20260903161022 92 224 2.0 2.0 0.00 0.00 0.00 68 1015.0
20260903160520 91 225 2.0 3.0 0.00 0.00 0.00 66 1015.1
20260903160016 92 256 3.0 3.0 0.00 0.00 0.00 66 1015.1
20260903155514 91 230 2.0 2.0 0.00 0.00 0.00 67 1015.1
20260903155010 90 214 0.0 1.0 0.00 0.00 0.00 67 1015.1
20260903154506 90 215 3.0 3.0 0.00 0.00 0.00 66 1015.2
20260903154002 90 233 4.0 6.0 0.00 0.00 0.00 67 1015.0
20260903153457 90 244 2.0 2.0 0.00 0.00 0.00 67 1014.6
20260903152953 90 236 2.0 2.0 0.00 0.00 0.00 68 1014.8
20260903152448 89 235 2.0 2.0 0.00 0.00 0.00 68 1015.1
20260903151944 89 212 3.0 5.0 0.00 0.00 0.00 68 1015.1
20260903151438 89 216 1.0 2.0 0.00 0.00 0.00 69 1015.0
20260903150934 89 224 2.0 5.0 0.00 0.00 0.00 68 1014.8
20260903150428 89 238 3.0 3.0 0.00 0.00 0.00 67 1015.0
20260903145923 89 238 3.0 5.0 0.00 0.00 0.00 68 1015.0
20260903145419 89 252 3.0 3.0 0.00 0.00 0.00 68 1015.0
20260903144918 89 267 1.0 2.0 0.00 0.00 0.00 69 1014.8
20260903144407 88 209 2.0 2.0 0.00 0.00 0.00 70 1015.0
20260903143903 88 230 2.0 2.0 0.00 0.00 0.00 71 1015.0
20260903143359 87 251 2.0 3.0 0.00 0.00 0.00 73 1014.5
20260903142859 87 230 2.0 3.0 0.00 0.00 0.00 72 1014.6
20260903142355 86 222 1.0 1.0 0.00 0.00 0.00 74 1014.8
20260903141851 86 241 2.0 2.0 0.00 0.00 0.00 73 1014.6
20260903141347 86 212 1.0 1.0 0.00 0.00 0.00 74 1014.5
20260903140842 86 213 1.0 1.0 0.00 0.00 0.00 74 1015.0
20260903140337 86 211 1.0 1.0 0.00 0.00 0.00 74 1014.7
20260903135833 85 228 1.0 1.0 0.00 0.00 0.00 76 1014.8
20260903135328 85 215 0.0 1.0 0.00 0.00 0.00 75 1014.8
20260903134827 85 215 1.0 1.0 0.00 0.00 0.00 76 1015.0
20260903134322 84 215 0.0 0.0 0.00 0.00 0.00 78 1015.1
20260903133819 84 209 0.0 0.0 0.00 0.00 0.00 77 1015.2
20260903133316 84 214 1.0 1.0 0.00 0.00 0.00 77 1015.0
20260903132810 83 203 0.0 1.0 0.00 0.00 0.00 77 1015.1
20260903132307 82 214 0.0 0.0 0.00 0.00 0.00 80 1015.1
20260903131801 82 208 1.0 1.0 0.00 0.00 0.00 79 1015.0
20260903131300 82 208 0.0 0.0 0.00 0.00 0.00 80 1015.1
20260903130755 81 202 0.0 1.0 0.00 0.00 0.00 82 1015.1
20260903130250 80 207 0.0 0.0 0.00 0.00 0.00 85 1015.1
20260903125748 78 213 0.0 0.0 0.00 0.00 0.00 87 1014.8
20260903125244 77 211 0.0 0.0 0.00 0.00 0.00 89 1015.0
20260903124743 77 211 0.0 0.0 0.00 0.00 0.00 90 1015.1
20260903124239 76 213 0.0 0.0 0.00 0.00 0.00 91 1014.7
20260903123737 75 213 0.0 0.0 0.00 0.00 0.00 92 1015.1
20260903123236 75 216 0.0 0.0 0.00 0.00 0.00 93 1015.0
20260903122735 75 216 0.0 0.0 0.00 0.00 0.00 94 1015.0
20260903122230 74 216 0.0 0.0 0.00 0.00 0.00 94 1014.7
20260903121728 74 216 0.0 0.0 0.00 0.00 0.00 94 1015.0
20260903121219 74 215 0.0 0.0 0.00 0.00 0.00 95 1015.0
20260903120718 74 215 0.0 0.0 0.00 0.00 0.00 96 1015.1
20260903120212 73 215 0.0 0.0 0.00 0.00 0.00 96 1014.8
20260903115710 73 215 0.0 0.0 0.00 0.00 0.00 96 1014.7
20260903115206 73 215 0.0 0.0 0.00 0.00 0.00 96 1014.6
20260903114701 73 215 0.0 0.0 0.00 0.00 0.00 96 1014.5
20260903114156 73 215 0.0 0.0 0.00 0.00 0.00 95 1014.4
20260903113652 73 215 0.0 0.0 0.00 0.00 0.00 95 1014.6
20260903113148 73 215 0.0 0.0 0.00 0.00 0.00 95 1014.5
20260903112643 73 215 0.0 0.0 0.00 0.00 0.00 95 1014.3
20260903112138 73 215 0.0 0.0 0.00 0.00 0.00 95 1014.2
20260903111637 74 215 0.0 0.0 0.00 0.00 0.00 95 1014.5
20260903111133 74 215 0.0 0.0 0.00 0.00 0.00 95 1014.3
20260903110629 74 215 0.0 0.0 0.00 0.00 0.00 95 1014.2
20260903110124 74 215 0.0 0.0 0.00 0.00 0.00 95 1014.4
20260903105618 74 215 0.0 0.0 0.00 0.00 0.00 95 1014.2
20260903105108 74 215 0.0 0.0 0.00 0.00 0.00 94 1014.3
20260903104608 74 215 0.0 0.0 0.00 0.00 0.00 95 1014.2
20260903104103 74 215 0.0 0.0 0.00 0.00 0.00 94 1014.2
20260903103559 74 215 0.0 0.0 0.00 0.00 0.00 94 1014.1
20260903103055 74 215 0.0 0.0 0.00 0.00 0.00 94 1014.3
20260903102550 74 215 0.0 0.0 0.00 0.00 0.00 93 1014.1
20260903102049 75 215 0.0 0.0 0.00 0.00 0.00 93 1014.1
20260903101544 75 215 0.0 0.0 0.00 0.00 0.00 93 1014.1
20260903101039 75 215 0.0 0.0 0.00 0.00 0.00 91 1014.2
20260903100534 75 215 0.0 0.0 0.00 0.00 0.00 91 1014.1
20260903100032 75 215 0.0 0.0 0.00 0.00 0.00 91 1014.2
20260903095530 75 215 0.0 0.0 0.00 0.00 0.00 91 1014.1
20260903095025 75 215 0.0 0.0 0.00 0.00 0.00 91 1014.0
20260903094520 75 215 0.0 0.0 0.00 0.00 0.00 91 1014.1
20260903094016 75 215 0.0 0.0 0.00 0.00 0.00 91 1013.9
20260903093515 75 215 0.0 0.0 0.00 0.00 0.00 91 1014.0
20260903093012 76 215 0.0 0.0 0.00 0.00 0.00 91 1014.2
20260903092511 76 215 0.0 0.0 0.00 0.00 0.00 90 1014.1
20260903092010 76 215 0.0 0.0 0.00 0.00 0.00 90 1014.1
20260903091509 77 215 0.0 0.0 0.00 0.00 0.00 89 1014.2
20260903091003 77 215 0.0 0.0 0.00 0.00 0.00 88 1014.1
20260903090500 78 215 0.0 0.0 0.00 0.00 0.00 85 1014.0
20260903085957 78 215 0.0 0.0 0.00 0.00 0.00 84 1013.9
20260903085456 78 215 0.0 0.0 0.00 0.00 0.00 83 1013.9
20260903084952 78 209 0.0 0.0 0.00 0.00 0.00 83 1014.0
20260903084450 79 211 0.0 0.0 0.00 0.00 0.00 82 1013.9
20260903083945 79 213 0.0 0.0 0.00 0.00 0.00 82 1014.1
20260903083441 79 210 0.0 0.0 0.00 0.00 0.00 82 1014.2
20260903082940 79 213 0.0 0.0 0.00 0.00 0.00 81 1014.1
20260903082435 79 216 0.0 0.0 0.00 0.00 0.00 81 1014.0
20260903081930 79 216 0.0 0.0 0.00 0.00 0.00 81 1014.0
20260903081425 79 212 0.0 0.0 0.00 0.00 0.00 81 1014.1
20260903080922 79 217 0.0 0.0 0.00 0.00 0.00 81 1014.2
20260903080418 79 211 0.0 0.0 0.00 0.00 0.00 81 1014.2
20260903075914 79 212 0.0 0.0 0.00 0.00 0.00 81 1014.2
20260903075409 79 206 0.0 0.0 0.00 0.00 0.00 82 1014.1
20260903074909 79 211 0.0 0.0 0.00 0.00 0.00 83 1014.2
20260903074403 79 211 0.0 0.0 0.00 0.00 0.00 83 1014.1
20260903073859 79 212 0.0 0.0 0.00 0.00 0.00 83 1013.9
20260903073353 79 212 0.0 0.0 0.00 0.00 0.00 83 1014.1
20260903072849 79 214 0.0 0.0 0.00 0.00 0.00 83 1014.0
20260903072345 80 213 0.0 0.0 0.00 0.00 0.00 82 1014.2
20260903071842 80 214 0.0 0.0 0.00 0.00 0.00 81 1014.4
20260903071338 79 212 0.0 0.0 0.00 0.00 0.00 82 1014.4
20260903070833 79 211 0.0 0.0 0.00 0.00 0.00 82 1014.3
20260903070328 79 214 0.0 0.0 0.00 0.00 0.00 83 1014.3
20260903065827 79 216 0.0 0.0 0.00 0.00 0.00 83 1014.4
20260903065322 80 215 0.0 0.0 0.00 0.00 0.00 81 1014.4
20260903064821 80 205 0.0 0.0 0.00 0.00 0.00 81 1014.2
20260903064317 80 215 0.0 0.0 0.00 0.00 0.00 81 1014.4
20260903063812 80 198 0.0 0.0 0.00 0.00 0.00 81 1014.4
20260903063306 80 212 0.0 0.0 0.00 0.00 0.00 81 1014.3
20260903062757 80 212 0.0 0.0 0.00 0.00 0.00 82 1014.5
20260903062256 80 213 0.0 0.0 0.00 0.00 0.00 82 1014.6
20260903061753 80 214 0.0 0.0 0.00 0.00 0.00 82 1014.4
20260903061252 80 208 0.0 0.0 0.00 0.00 0.00 83 1014.3
20260903060747 79 212 0.0 0.0 0.00 0.00 0.00 83 1014.4
20260903060242 79 213 0.0 0.0 0.00 0.00 0.00 84 1014.4
20260903055739 79 218 0.0 0.0 0.00 0.00 0.00 86 1014.5
20260903055238 78 214 0.0 0.0 0.00 0.00 0.00 87 1014.4
20260903054733 78 215 0.0 0.0 0.00 0.00 0.00 90 1014.2
20260903054228 79 215 0.0 0.0 0.00 0.00 0.00 89 1014.3
20260903053724 79 215 0.0 0.0 0.00 0.00 0.00 88 1014.2
20260903053219 80 215 0.0 0.0 0.00 0.00 0.00 87 1014.3
20260903052714 80 215 0.0 0.0 0.00 0.00 0.00 86 1014.4
20260903052210 81 214 0.0 0.0 0.00 0.00 0.00 84 1014.4
20260903051705 81 214 0.0 0.0 0.00 0.00 0.00 83 1014.3
20260903051201 81 212 0.0 0.0 0.00 0.00 0.00 83 1014.4
20260903050656 81 215 0.0 0.0 0.00 0.00 0.00 83 1014.3
20260903050154 81 207 0.0 0.0 0.00 0.00 0.00 84 1014.2
20260903045649 81 213 0.0 0.0 0.00 0.00 0.00 84 1014.2
20260903045140 81 209 0.0 0.0 0.00 0.00 0.00 85 1014.3
20260903044635 81 216 0.0 0.0 0.00 0.00 0.00 85 1014.2
20260903044126 82 216 0.0 0.0 0.00 0.00 0.00 84 1014.1
20260903043622 82 218 0.0 0.0 0.00 0.00 0.00 84 1014.0
20260903043121 82 216 0.0 0.0 0.00 0.00 0.00 83 1014.2
20260903042621 82 209 0.0 0.0 0.00 0.00 0.00 83 1014.2
20260903042116 82 214 0.0 0.0 0.00 0.00 0.00 82 1014.0
20260903041612 83 212 0.0 1.0 0.00 0.00 0.00 82 1014.0
20260903041108 83 215 0.0 0.0 0.00 0.00 0.00 81 1014.1
20260903040607 83 221 1.0 2.0 0.00 0.00 0.00 81 1014.0
20260903040104 83 214 0.0 0.0 0.00 0.00 0.00 81 1014.1
20260903035558 83 218 0.0 1.0 0.00 0.00 0.00 80 1014.1
20260903035054 83 212 0.0 0.0 0.00 0.00 0.00 81 1014.1
20260903034549 83 214 0.0 0.0 0.00 0.00 0.00 81 1013.8
20260903034044 83 215 0.0 0.0 0.00 0.00 0.00 81 1013.9
20260903033539 83 216 0.0 0.0 0.00 0.00 0.00 80 1013.9
20260903033034 83 218 0.0 0.0 0.00 0.00 0.00 81 1014.1
20260903032529 83 214 0.0 0.0 0.00 0.00 0.00 81 1013.9
20260903032025 83 215 0.0 0.0 0.00 0.00 0.00 81 1013.9
20260903031524 83 215 0.0 0.0 0.00 0.00 0.00 80 1014.1
20260903031020 83 211 0.0 1.0 0.00 0.00 0.00 80 1014.1
20260903030515 83 214 0.0 1.0 0.00 0.00 0.00 80 1014.1
20260903030011 83 205 0.0 0.0 0.00 0.00 0.00 80 1014.1
20260903025507 83 211 0.0 0.0 0.00 0.00 0.00 81 1014.0
20260903025002 82 215 0.0 0.0 0.00 0.00 0.00 82 1013.9
20260903024501 82 210 0.0 0.0 0.00 0.00 0.00 84 1014.0
20260903023955 81 213 0.0 0.0 0.00 0.00 0.00 86 1014.1
20260903023451 81 213 0.0 0.0 0.00 0.00 0.00 86 1013.9
20260903022946 81 217 0.0 0.0 0.00 0.00 0.00 89 1013.9
20260903022445 80 216 0.0 0.0 0.00 0.00 0.00 90 1014.0
20260903021943 81 216 0.0 0.0 0.00 0.00 0.00 91 1014.0
20260903021439 80 216 0.0 0.0 0.00 0.00 0.00 92 1013.8
20260903020935 80 216 0.0 0.0 0.00 0.00 0.00 93 1014.0
20260903020430 81 216 0.0 0.0 0.00 0.00 0.00 93 1014.0
20260903015925 81 216 0.0 0.0 0.00 0.00 0.00 93 1013.8
20260903015420 81 216 0.0 0.0 0.00 0.00 0.00 93 1013.9
20260903014915 81 216 0.0 0.0 0.00 0.00 0.00 92 1013.6
20260903014409 82 216 0.0 0.0 0.00 0.00 0.00 92 1013.8
20260903013904 82 216 0.0 0.0 0.00 0.00 0.00 91 1013.7
20260903013404 82 216 0.0 0.0 0.00 0.00 0.00 91 1013.7
20260903012903 82 216 0.0 0.0 0.00 0.00 0.00 91 1013.6
20260903012403 82 216 0.0 0.0 0.00 0.00 0.00 91 1013.4
20260903011901 82 216 0.0 0.0 0.00 0.00 0.00 90 1013.7
20260903011356 83 216 0.0 0.0 0.00 0.00 0.00 90 1013.7
20260903010852 83 216 0.0 0.0 0.00 0.00 0.00 90 1013.4
20260903010347 83 216 0.0 0.0 0.00 0.00 0.00 90 1013.5
20260903005844 84 216 0.0 0.0 0.00 0.00 0.00 89 1013.4
20260903005335 84 216 0.0 0.0 0.00 0.00 0.00 89 1013.5
20260903004831 84 216 0.0 0.0 0.00 0.00 0.00 88 1013.6
20260903004326 85 216 0.0 0.0 0.00 0.00 0.00 88 1013.4
20260903003821 85 216 0.0 0.0 0.00 0.00 0.00 87 1013.5
20260903003316 85 216 0.0 0.0 0.00 0.00 0.00 87 1013.7
20260903002816 86 216 0.0 0.0 0.00 0.00 0.00 86 1013.6
20260903002315 86 216 0.0 0.0 0.00 0.00 0.00 84 1013.5
20260903001810 87 216 0.0 0.0 0.00 0.00 0.00 83 1013.6
20260903001305 88 216 0.0 0.0 0.00 0.00 0.00 82 1013.5
20260903000800 88 216 0.0 0.0 0.00 0.00 0.00 80 1013.2
20260903000255 89 216 0.0 0.0 0.00 0.00 0.00 78 1013.7
20260902235753 89 216 0.0 0.0 0.00 0.00 0.00 78 1013.2
20260902235248 90 216 0.0 0.0 0.00 0.00 0.00 75 1013.6
20260902234748 90 216 0.0 0.0 0.00 0.00 0.00 74 1013.7
20260902234242 91 216 0.0 0.0 0.00 0.00 0.00 73 1013.3
20260902233742 91 216 0.0 0.0 0.00 0.00 0.00 72 1013.7
20260902233236 91 215 0.0 1.0 0.00 0.00 0.00 71 1013.7
20260902232734 91 218 0.0 1.0 0.00 0.00 0.00 72 1013.7
20260902232228 91 218 0.0 0.0 0.00 0.00 0.00 72 1013.6
20260902231723 91 212 0.0 0.0 0.00 0.00 0.00 72 1013.7
20260902231218 91 215 1.0 1.0 0.00 0.00 0.00 71 1013.9
20260902230713 92 219 0.0 0.0 0.00 0.00 0.00 70 1013.8
20260902230212 92 219 0.0 0.0 0.00 0.00 0.00 70 1013.7
20260902225706 92 213 0.0 1.0 0.00 0.00 0.00 68 1013.7
20260902225201 92 224 1.0 1.0 0.00 0.00 0.00 69 1013.8
20260902224659 92 221 0.0 1.0 0.00 0.00 0.00 71 1013.7
20260902224155 92 221 0.0 1.0 0.00 0.00 0.00 70 1013.7
20260902223651 93 220 1.0 1.0 0.00 0.00 0.00 67 1013.7
20260902223150 94 214 1.0 2.0 0.00 0.00 0.00 66 1013.9
20260902222649 94 220 0.0 0.0 0.00 0.00 0.00 62 1014.0
20260902222148 94 228 1.0 2.0 0.00 0.00 0.00 62 1013.9
20260902221643 94 230 2.0 2.0 0.00 0.00 0.00 61 1013.9
20260902221138 94 229 2.0 2.0 0.00 0.00 0.00 61 1014.0
20260902220633 94 225 0.0 0.0 0.00 0.00 0.00 63 1014.0
20260902220133 94 223 0.0 0.0 0.00 0.00 0.00 63 1013.9
20260902215629 95 220 0.0 1.0 0.00 0.00 0.00 62 1014.0
20260902215124 95 239 2.0 2.0 0.00 0.00 0.00 62 1014.1
20260902214620 95 206 0.0 0.0 0.00 0.00 0.00 60 1013.8
20260902214118 95 217 0.0 0.0 0.00 0.00 0.00 63 1014.1
20260902213615 95 204 0.0 0.0 0.00 0.00 0.00 59 1014.0
20260902213113 95 215 0.0 0.0 0.00 0.00 0.00 58 1013.9
20260902212609 95 230 1.0 2.0 0.00 0.00 0.00 60 1014.3
20260902212105 95 214 1.0 1.0 0.00 0.00 0.00 60 1013.9
20260902211601 95 223 0.0 1.0 0.00 0.00 0.00 59 1014.2
20260902211056 96 217 0.0 1.0 0.00 0.00 0.00 58 1014.3
20260902210555 96 217 1.0 2.0 0.00 0.00 0.00 59 1014.4
20260902210050 96 175 3.0 3.0 0.00 0.00 0.00 56 1014.4